Regional Weather Roundup
Issued by NWS Upton, NY

Current Version | Previous Version | Text Only | Print | Product List | Glossary On
Versions: 1 2 3 4 5 6 7 8 9 10 11 12 13 14 15 16 17 18 19 20 21 22 23 24 25 26 27 28 29 30 31 32 33 34 35 36 37 38 39 40 41 42 43 44 45 46 47 48 49 50
000
ASUS41 KOKX 241505
RWROKX

Regional Weather Roundup
National Weather Service New York NY
1100 AM EDT THU MAY 24 2018

Note: "FAIR" indicates few or no clouds below 12,000 feet with no
significant weather and/or obstructions to visibility.

NYZ071-072-176-178-NJZ106-104-241600-
New York City Metro Area

CITY           SKY/WX    TMP DP  RH WIND       PRES   REMARKS
Central Park   FAIR      75  38  26 CALM      30.16S
Bronx Bot Gard   N/A     75  36  23 N3        30.16R
Bronx Lehman C   N/A     73  32  21 N9          N/A
LaGuardia Arpt FAIR      75  36  24 N13       30.13R
Queens College   N/A     73  30  20 N13         N/A
Kennedy Intl   FAIR      76  35  22 N16       30.14R
Breezy Point     N/A     73 N/A N/A N8          N/A
Brooklyn Coll    N/A     75  37  25 N6          N/A
Staten Island    N/A     75  39  27 N3          N/A
Newark/Liberty FAIR      77  40  26 VRB5G21   30.14R
Teterboro      FAIR      76  40  27 N7        30.12S
$$

NYZ177-179-078>081-241600-
Long Island New York

CITY           SKY/WX    TMP DP  RH WIND       PRES   REMARKS
Jones Beach      N/A     72 N/A N/A NW12        N/A
Wantagh          N/A     75  39  27 N9          N/A
Hempstead        N/A     73  43  33 NW9       30.16S
Matinecock Pt    N/A     72 N/A N/A SW2         N/A
Farmingdale    FAIR      73  41  31 N13       30.13R
MacArthur/ISP  FAIR      74  43  32 NW14      30.12R
Stony Brook      N/A     70  46  43 N6          N/A
Shirley        FAIR      74  40  29 N8        30.12R
Mt Sinai Harb    N/A     73 N/A N/A W5          N/A
Westhampton    FAIR      74  38  27 N12       30.13R
East Hampton   FAIR      71  48  45 N7        30.11S
Southold         N/A     68  50  52 N6          N/A
Montauk          N/A     70  43  37 NW6       30.13R
$$

NYZ052-065-067-241600-
Hudson Valley

CITY           SKY/WX    TMP DP  RH WIND       PRES   REMARKS
White Plains   FAIR      73  33  23 N10       30.14R
Larchmont Harb   N/A     72 N/A N/A NW14        N/A
Croton On Huds   N/A     75 N/A N/A N14         N/A
Somers           N/A     72  37  28 N5          N/A
Brewster         N/A     70  32  24 N12         N/A
Newburgh       NOT AVBL
Montgomery     FAIR      73  43  33 VRB3      30.13F
Otisville        N/A     73  39  29 NW8G21      N/A
Warwick          N/A     72  45  37 NW7         N/A
Suffern          N/A     72  39  30 N6          N/A
Poughkeepsie   FAIR      72  39  30 NW5       30.13S
Albany         FAIR      70  36  28 N8        30.16S
$$

NJZ001-105-106-008-010-013-015-019>022-104-241600-
New Jersey

CITY           SKY/WX    TMP DP  RH WIND       PRES   REMARKS
Newark/Liberty FAIR      77  40  26 VRB5G21   30.14R
Teterboro      FAIR      76  40  27 N7        30.12S
Caldwell       FAIR      75  42  30 CALM      30.14S
Somerville     FAIR      77  40  26 N8        30.13F
Linden         FAIR      76  42  29 N7        30.14S
Perth Amboy      N/A     73 N/A N/A N9          N/A
Sussex         FAIR      74  46  36 VRB5      30.15F
Andover          N/A     73  43  33 VRB5      30.16S
Trenton        FAIR      76  45  33 N8        30.15S
Millville      FAIR      78  44  29 N12G21    30.15S
Atlantic City  FAIR      79  52  38 N12G18    30.15R
Wrightstown    FAIR      76  41  28 N16       30.13
Toms River     FAIR      76  49  38 N9        30.15S
Belmar         FAIR      76  43  30 N7G16     30.15S
$$

PAZ047>061-062-071-241600-
Eastern Pennsylvania

CITY           SKY/WX    TMP DP  RH WIND       PRES   REMARKS
Philadelphia   FAIR      77  40  26 N12       30.17R
Allentown      FAIR      75  47  36 CALM      30.17S
Scranton       FAIR      70  47  43 W5        30.19F
$$

CTZ002-004>006-009-010-012-RIZ004-006-007-MAZ004-011-015-241600-
Southern New England

 In CT

CITY           SKY/WX    TMP DP  RH WIND       PRES   REMARKS
Bradley Intl   FAIR      74  39  28 N9        30.12R
Hartford       FAIR      73  42  32 N9        30.11S
Danbury        FAIR      72  30  21 N12G24    30.15R
Wtrbury/Oxford FAIR      70  35  27 N13       30.14R
Norwalk Harbor   N/A     66 N/A N/A S5          N/A
Bridgeport     FAIR      77  34  21 N10       30.12R
Meriden        FAIR      74  34  23 NW13G18   30.11S
New Haven      FAIR      76  36  23 VRB7      30.11S
Chester        FAIR      75  43  31 N12       30.12S
Groton         FAIR      73  41  31 NW15      30.10R
Willimantic    FAIR      74  37  26 N14G20    30.11S

 In RI

CITY           SKY/WX    TMP DP  RH WIND       PRES   REMARKS
Providence     FAIR      72  33  24 N20       30.11R
Block Island   CLOUDY    58  56  93 E7        30.13R
Westerly       FAIR      74  35  24 N12G20    30.11R

In MA

CITY           SKY/WX    TMP DP  RH WIND       PRES   REMARKS
Boston         FAIR      59  53  80 E9        30.12R
Worcester      FAIR      67  29  24 N14G21    30.11F
Westfield      FAIR      75  33  21 VRB7      30.11R
Provincetown   PTSUNNY   59  49  69 VRB6      30.14S
Nantucket      FAIR      59  46  62 E14       30.12R
$$

ANZ330-335-338-340-345-350-353-355-241600-
Coastal Marine Observations


STATION/POSITION TIME  SKY/WX   TEMP    WIND        PRES    VSBY  WAVE
                                AIR SEA DIR/SP/G                  HT/PER
                 (UTC)          (F)     (DEG/KT/KT) (MB)    (MI)  (FT/S)
NY Harb Entrance 1450            62 58  310/  6/  8 1020.4          2/ 8
20 S Fire Island 1450            61 56  340/  6/  6 1020.4          2/ 6
23 SSW Montauk P 1450            58 57   20/  2/  2 1020.0          2/ 6
15 E Barnegat Li 1430               61                N/A           3/ 6
Hudson Canyon    1450            58 54  350/  8/  8 1019.6          2/ 7
Kings Point      1430            70 58   60/  5/  6 1021.4
Execution Rocks  NOT AVBL
Western LI Sound NOT AVBL
Central LI Sound 1430            64     270/  4/  6   N/A           1
Robbins Reef     1430            73     350/ 10/ 13 1021.0
$$


>>>>>>>>>>>>>>>>>>>>>>>>>>>> KEY <<<<<<<<<<<<<<<<<<<<<<<<<<<
>                                                          <
>     SKY/WX - Sky Condition/Present Weather               <
>     TMP    - Temperature in Fahrenheit                   <
>     DP     - Dew Point in Fahrenheit                     <
>     RH     - Relative Humidity in Percent                <
>     WIND   - Direction (from) and Speed in MPH           <
>     PRES   - Mean Sea Level Pressure (inches of Hg)      <
>     WCI    - Wind Chill Index                            <
>     VSB    - Visibility in Miles                         <
>     HX     - Heat Index                                  <
>     TC     - Temperature in Celsius                      <
>     VRB    - Varibale Wind Direction                     <
>                                                          <
>>>>>>>>>>>>>>>>>>>>>>>>>>>> KEY <<<<<<<<<<<<<<<<<<<<<<<<<<<



USA.gov is the U.S. government's official web portal to all federal, state and local government web resources and services.